Home   Weather   Douai   Past weeks

Flag for France Past Weather in Douai, Nord-Pas-de-Calais, France — Yesterday and Last 2 Weeks

Now
52 °F

Partly sunny.


Feels Like: 47 °F
Forecast: 36 / 52 °F
Wind: 13 mph from North

Location: Lille Airport

Current Time: Apr 25, 2017 at 4:47:13 pm

Latest Report: Apr 25, 2017 at 4:00 pm


Visibility: N/A

Pressure: 29.89 "Hg

Humidity: 41%

Dew Point: 28 °F

Location of DouaiLocation

Past Weather in Douai — Graph

°F

Douai Temperature Yesterday

Maximum temperature yesterday: 59 °F (at 12:30 pm)
Minimum temperature yesterday: 36 °F (at 6:00 am)
Average temperature yesterday: 49 °F

High & Low Weather Summary for the Past Weeks

 TemperatureHumidityPressure
High61 °F (Apr 11, 4:30 pm)100% (Apr 23, 7:00 am)30.66 "Hg (Apr 23, 7:00 am)
Low28 °F (Apr 20, 7:00 am)23% (Apr 20, 7:00 pm)29.80 "Hg (Apr 24, 11:30 pm)
Average49 °F65%30.23 "Hg
* Reported Apr 10 3:00 pm — Apr 25 3:30 pm, Douai, Weather by CustomWeather, © 2017

Note: Actual official high and low records may vary slightly from our data, if they occured in-between our weather recording intervals... More about our weather records

Advertising

Douai Weather History for the Previous 24 Hours

Scroll right to see more
 ConditionsComfort  
Time TempWeatherWind HumidityBarometerVisibility
3:30 pm
Tue, Apr 25
50 °FBroken clouds.12 mph47%29.86 "HgN/A
3:00 pm52 °FBroken clouds.13 mph47%29.86 "HgN/A
2:30 pm50 °FScattered clouds.14 mph47%29.89 "HgN/A
1:30 pm50 °FPassing clouds.15 mph50%29.89 "HgN/A
1:00 pm50 °FBroken clouds.13 mph50%29.89 "HgN/A
12:30 pm48 °FPartly sunny.16 mph54%29.89 "HgN/A
12:00 pm48 °FBroken clouds.15 mph54%29.89 "HgN/A
11:30 am46 °FPartly sunny.16 mph53%29.89 "HgN/A
11:00 am45 °FPartly sunny.18 mph53%29.89 "HgN/A
10:30 am46 °FPartly sunny.17 mph50%29.86 "HgN/A
10:00 am45 °FPartly sunny.15 mph61%29.86 "HgN/A
9:00 am43 °FSunny.12 mph61%29.86 "Hg10 mi
8:30 am41 °FSunny.10 mph66%29.86 "Hg10 mi
7:30 am39 °FSunny.7 mph70%29.86 "Hg10 mi
7:00 am39 °FSunny.9 mph70%29.83 "Hg10 mi
6:30 am41 °FMostly cloudy.12 mph66%29.83 "HgN/A
5:30 am43 °FClear.13 mph61%29.83 "Hg10 mi
4:30 am43 °FClear.16 mph66%29.83 "Hg10 mi
4:00 am45 °FOvercast.13 mph61%29.80 "HgN/A
3:30 am45 °FMostly cloudy.18 mph66%29.80 "HgN/A
3:00 am46 °FPartly cloudy.12 mph87%29.80 "HgN/A
2:30 am46 °FPartly cloudy.6 mph87%29.80 "HgN/A
2:00 am46 °FMostly cloudy.6 mph87%29.80 "HgN/A
1:30 am46 °FPartly cloudy.10 mph87%29.83 "HgN/A
12:30 am48 °FMostly cloudy.12 mph82%29.83 "HgN/A
12:00 am50 °FPassing clouds.14 mph82%29.80 "HgN/A
11:30 pm
Mon, Apr 24
52 °FClear.12 mph72%29.80 "Hg10 mi
11:00 pm52 °FClear.10 mph72%29.83 "Hg10 mi
10:30 pm52 °FClear.9 mph72%29.83 "Hg10 mi
10:00 pm52 °FClear.12 mph72%29.83 "Hg10 mi
9:30 pm54 °FClear.9 mph63%29.83 "Hg10 mi
9:00 pm54 °FClear.12 mph63%29.83 "Hg10 mi
8:30 pm54 °FSunny.13 mph63%29.86 "Hg10 mi
8:00 pm55 °FSunny.15 mph55%29.86 "Hg10 mi
7:30 pm57 °FSunny.14 mph55%29.86 "Hg10 mi
7:00 pm59 °FPassing clouds.13 mph48%29.86 "HgN/A
6:30 pm59 °FSunny.14 mph48%29.89 "Hg10 mi
6:00 pm59 °FSunny.14 mph48%29.89 "Hg10 mi
5:30 pm57 °FPassing clouds.10 mph55%29.89 "HgN/A
5:00 pm57 °FSunny.12 mph55%29.92 "Hg10 mi
4:30 pm57 °FSunny.13 mph51%29.92 "Hg10 mi
4:00 pm57 °FSunny.13 mph51%29.92 "Hg10 mi
Weather by CustomWeather, © 2017

See weather overviewHow to use our weather pages